Wind_Speed
11 11 12 12 12 12 12 12 12 12 12 11 12 12 12 12 11 11 11 11 10 11 11 11 11 11 11 11 10 9 8 7 5 4 3 2 2 3 5 6 7 8 10 10
12 12 12 13 12 12 12 12 12 12 12 12 12 13 13 12 13 12 11 11 11 11 12 13 12 11 11 12 10 10 9 7 6 5 4 3 2 2 4 6 7 8 9 10
12 12 12 12 12 12 12 12 12 12 12 12 12 13 13 13 13 13 12 11 11 12 13 12 12 12 13 13 12 11 10 8 7 6 5 3 2 2 3 5 6 7 8 9
13 13 12 12 12 12 12 12 13 13 12 12 13 13 14 14 14 14 13 12 12 13 14 14 13 13 14 14 13 12 11 9 8 6 5 4 3 2 3 4 5 7 7 8
13 13 13 13 12 12 12 12 13 12 12 12 12 13 13 14 15 14 15 14 13 14 15 15 14 14 15 14 14 14 12 10 9 7 6 5 4 3 3 3 5 6 7 7
14 14 13 13 13 13 13 12 12 12 13 12 12 13 13 13 14 14 15 15 15 15 15 15 15 15 15 15 15 14 13 11 10 8 7 6 4 3 3 2 3 5 6 6
14 13 13 13 13 12 12 12 12 12 13 13 13 14 13 13 14 14 14 15 15 15 16 16 16 16 16 16 16 15 14 12 11 9 8 7 5 4 3 3 2 3 4 5
14 13 13 13 13 13 13 13 13 13 13 13 13 13 13 13 14 14 15 15 16 16 16 16 17 17 16 16 16 16 15 13 12 11 9 8 7 5 4 3 2 3 3 4
14 14 13 13 13 12 13 14 13 13 13 13 13 12 13 13 14 14 15 16 17 16 17 17 17 17 17 17 17 16 16 14 13 12 11 9 8 6 5 4 3 3 3 3
15 15 14 13 13 13 13 13 13 13 13 13 12 13 13 14 15 15 15 16 17 17 18 18 18 18 18 18 18 17 17 15 14 13 12 10 9 8 6 5 4 3 3 3
16 15 14 14 14 13 13 13 14 13 13 13 13 13 14 14 14 15 16 16 17 17 17 18 19 19 19 19 18 18 17 17 16 15 13 12 10 9 7 6 5 4 4 3
17 16 15 15 14 14 14 14 14 14 13 14 14 13 13 14 14 15 16 17 17 17 18 18 19 20 20 19 19 18 18 18 17 16 15 13 12 10 9 8 7 5 4 4
17 16 15 15 15 14 15 15 15 15 15 14 14 13 14 14 15 16 16 17 18 18 18 18 19 20 20 20 20 20 19 19 18 18 17 15 13 12 11 10 8 7 6 4
18 17 16 16 16 15 15 15 15 15 15 14 14 14 14 15 16 16 17 18 19 19 19 19 19 20 21 21 21 21 20 20 19 19 18 16 15 14 12 11 10 9 7 6
18 17 16 16 16 16 16 15 16 16 15 14 14 15 15 15 16 17 17 18 19 20 20 19 19 20 21 21 22 22 21 21 20 20 19 18 16 15 14 13 12 10 9 7
19 17 17 17 17 16 16 16 16 16 16 15 15 15 16 16 17 17 18 18 19 20 21 20 20 20 21 22 22 22 22 22 21 20 20 19 18 16 16 15 13 12 11 9
19 18 18 17 17 17 15 15 16 16 16 17 16 16 18 17 17 18 18 18 19 21 22 21 20 19 20 22 23 23 23 22 22 21 21 20 19 17 16 16 14 13 12 11
20 19 19 18 18 17 15 15 16 16 17 17 17 17 18 18 18 18 18 18 19 20 21 20 20 20 20 21 23 22 22 22 21 21 21 21 20 19 18 17 16 14 13 13
22 21 20 20 19 17 15 15 16 16 16 17 17 17 17 18 18 18 18 19 19 19 20 20 20 20 21 21 22 22 22 22 21 22 21 21 20 19 18 17 16 16 15 14
23 22 21 20 19 17 16 16 16 16 16 17 17 17 17 17 17 18 18 18 18 18 19 19 20 20 21 21 22 22 21 21 21 22 22 22 21 21 20 18 17 16 15 15
24 22 22 20 19 17 16 16 16 15 15 16 16 16 16 16 16 18 19 18 18 19 19 19 19 19 20 21 21 21 21 21 21 22 22 22 22 21 21 20 19 18 17 16
24 23 22 21 19 17 17 17 16 16 15 16 16 15 15 16 17 17 18 18 18 18 18 18 18 19 19 20 20 20 20 20 21 22 22 21 22 21 21 20 20 20 19 18
26 24 22 21 19 19 18 18 17 16 16 16 16 15 15 15 15 16 17 17 17 18 17 17 18 18 19 19 19 20 20 20 20 21 22 21 21 21 21 20 20 20 20 20
27 25 23 21 20 20 19 18 18 17 16 15 15 15 15 14 14 15 16 16 17 18 18 17 17 17 19 19 19 20 20 21 21 21 21 21 21 21 22 22 22 22 22 21
28 26 24 23 21 21 21 19 18 18 17 15 15 15 15 15 15 16 15 16 16 17 18 18 18 18 19 19 18 18 19 20 20 21 21 22 22 22 23 23 23 23 23 23
28 26 25 24 23 23 22 20 19 18 18 17 16 16 15 15 15 15 16 17 17 17 17 18 19 20 20 20 19 19 19 19 20 21 22 23 23 24 24 24 24 25 24 24
Wind_Direction
249 247 247 247 246 248 250 249 247 246 243 239 238 239 234 225 227 227 229 228 226 217 212 208 206 201 198 193 188 183 174 171 169 167 157 137 100 65 54 52 51 47 46 49
246 243 244 246 246 248 250 247 245 243 241 242 243 238 236 232 228 228 232 230 221 216 209 208 207 203 195 191 191 187 180 178 177 175 167 149 119 79 60 57 54 50 49 52
243 242 243 245 246 246 247 245 243 242 242 241 239 235 236 233 230 228 231 231 225 213 207 203 204 202 196 194 193 188 184 182 181 179 172 157 137 100 76 65 59 56 54 56
241 241 242 244 245 246 247 246 244 242 241 239 236 234 234 231 226 226 230 229 223 213 209 205 207 206 199 195 196 193 188 187 186 184 175 167 156 123 94 75 66 61 60 61
240 240 241 242 244 246 246 247 245 243 241 239 235 234 236 231 227 226 227 226 223 215 211 206 207 206 201 197 199 196 192 192 191 190 182 174 169 146 118 88 74 67 65 65
239 239 241 242 243 244 244 245 244 243 240 237 233 232 232 231 230 230 228 226 223 219 211 206 207 205 201 198 197 196 195 195 195 192 187 181 175 163 151 118 87 75 70 69
238 239 240 241 241 242 241 242 244 242 239 236 233 233 230 230 229 229 227 223 219 218 210 207 207 204 201 199 199 199 199 199 199 197 193 188 183 176 168 150 110 89 80 75
237 239 241 239 240 241 241 240 239 240 239 237 235 235 232 229 228 229 225 222 218 216 214 211 207 206 204 202 201 200 200 201 202 201 200 196 190 184 175 163 137 109 97 90
236 239 240 240 239 239 239 238 237 238 238 236 235 233 233 230 227 227 225 222 217 216 217 214 209 209 206 204 203 203 203 203 204 204 203 199 196 191 184 174 159 139 121 109
236 239 239 239 238 237 237 235 233 234 236 235 233 231 232 232 229 226 225 221 219 219 219 217 213 211 208 207 208 208 207 207 207 205 203 203 202 199 194 186 174 158 145 132
235 237 237 238 238 238 234 232 232 234 235 233 233 234 234 233 232 230 227 222 221 221 218 216 213 211 209 210 210 211 209 209 209 208 209 209 208 207 202 198 193 180 167 154
234 234 236 237 237 237 233 231 230 232 234 232 233 234 233 234 233 231 229 226 223 222 220 216 214 213 211 210 212 212 210 211 212 212 212 213 212 211 208 207 203 197 189 177
232 233 235 236 237 235 232 230 230 232 233 233 236 237 236 236 235 233 231 229 227 226 222 216 215 215 213 211 212 214 213 214 216 216 215 216 217 216 215 213 212 208 206 201
230 230 232 235 237 235 233 233 233 234 234 235 235 237 240 239 238 235 232 229 227 227 225 220 217 216 215 215 216 215 216 216 218 218 218 219 219 220 218 218 217 217 216 218
229 229 231 234 235 234 233 235 236 237 239 238 234 237 240 242 240 237 235 231 226 223 224 223 220 219 218 219 219 217 217 217 218 218 219 221 221 222 221 220 222 223 222 224
229 229 230 233 235 234 235 237 239 240 242 241 238 237 242 243 240 237 236 233 226 222 221 221 221 221 222 221 220 219 218 219 221 221 221 221 222 224 223 222 223 227 229 229
227 228 230 233 235 236 235 237 241 241 239 239 238 237 241 245 240 237 236 234 229 223 221 221 222 223 220 218 218 219 219 220 221 221 220 221 222 225 224 224 227 230 232 235
223 225 228 231 234 238 238 240 243 244 242 242 239 238 242 245 238 234 232 231 229 224 223 223 225 226 221 218 216 218 218 218 219 221 222 222 225 226 224 225 229 232 235 238
223 226 228 230 235 238 239 240 243 244 241 240 238 239 241 242 238 234 233 231 230 228 226 226 227 228 223 219 219 219 219 220 221 223 223 223 225 226 226 228 230 233 236 239
224 226 228 231 235 237 237 240 243 243 238 237 237 239 241 240 233 231 232 231 230 229 226 226 227 228 224 222 221 220 221 221 222 224 226 226 227 228 229 231 234 237 240 243
224 227 229 230 234 234 237 239 241 241 238 235 237 238 239 238 235 234 232 231 229 229 228 229 228 227 225 222 222 222 221 221 223 226 227 228 227 229 231 233 235 239 243 247
224 226 226 229 233 234 237 238 237 239 236 234 236 238 238 236 236 235 232 230 227 225 225 225 224 224 224 223 222 222 223 225 226 228 230 232 229 231 235 236 237 240 244 248
223 223 224 229 232 234 234 234 236 238 236 234 236 238 237 235 234 231 229 227 224 223 223 224 224 224 224 223 223 222 225 228 229 232 234 234 234 234 236 237 240 242 245 249
222 222 223 227 229 229 231 232 233 234 235 234 234 233 234 235 232 231 228 226 224 223 224 225 224 224 223 223 226 227 228 230 232 232 233 234 235 237 238 239 241 244 247 251
220 222 224 228 228 228 229 231 232 234 234 233 232 231 231 233 229 228 229 228 226 225 226 226 225 225 224 223 226 229 231 234 234 235 236 236 238 240 242 243 244 246 249 253
220 221 224 225 226 228 227 231 231 231 231 231 231 232 233 234 232 231 228 226 226 227 228 227 226 226 224 226 228 229 231 234 235 236 238 239 240 242 244 246 248 250 252 256
Height
5856 5857 5858 5859 5860 5861 5861 5862 5863 5863 5864 5865 5865 5866 5867 5868 5869 5870 5872 5873 5874 5875 5877 5879 5881 5882 5884 5886 5888 5889 5890 5891 5892 5893 5893 5893 5892 5891 5890 5888 5887 5885 5883 5881
5854 5854 5855 5855 5857 5858 5859 5860 5860 5861 5862 5863 5863 5864 5865 5866 5867 5869 5870 5871 5873 5874 5876 5878 5880 5881 5883 5885 5887 5888 5890 5891 5892 5893 5893 5893 5893 5892 5891 5889 5888 5886 5884 5882
5850 5852 5852 5853 5854 5855 5856 5857 5858 5859 5859 5860 5861 5862 5863 5864 5865 5867 5868 5870 5871 5873 5875 5876 5878 5880 5882 5884 5886 5888 5889 5891 5892 5892 5893 5893 5893 5892 5891 5890 5889 5887 5885 5884
5846 5848 5849 5850 5851 5852 5853 5854 5855 5856 5857 5858 5859 5860 5861 5862 5863 5865 5866 5868 5869 5871 5873 5875 5877 5879 5881 5883 5886 5887 5889 5890 5891 5892 5893 5893 5893 5893 5892 5891 5890 5888 5887 5885
5843 5845 5846 5847 5849 5849 5850 5851 5852 5853 5854 5855 5856 5858 5859 5859 5861 5863 5864 5865 5867 5869 5871 5873 5875 5877 5880 5882 5884 5886 5888 5890 5891 5892 5893 5893 5893 5893 5892 5892 5891 5890 5888 5887
5840 5841 5843 5844 5845 5846 5847 5849 5849 5850 5851 5853 5854 5855 5857 5857 5858 5860 5861 5863 5865 5867 5869 5871 5874 5876 5878 5881 5883 5885 5888 5889 5891 5892 5892 5893 5893 5893 5893 5892 5892 5891 5890 5889
5837 5838 5839 5841 5842 5843 5845 5846 5847 5848 5849 5850 5851 5852 5855 5854 5856 5857 5859 5860 5862 5864 5867 5869 5872 5874 5877 5879 5882 5884 5886 5888 5890 5891 5892 5893 5893 5893 5893 5893 5892 5892 5891 5890
5833 5835 5836 5837 5839 5840 5841 5843 5845 5846 5847 5847 5848 5849 5852 5852 5853 5854 5856 5858 5860 5863 5865 5867 5870 5873 5875 5878 5880 5883 5885 5887 5889 5890 5892 5892 5893 5893 5893 5893 5893 5892 5892 5891
5829 5832 5833 5834 5835 5837 5838 5839 5841 5842 5843 5845 5846 5847 5848 5849 5850 5851 5853 5855 5858 5860 5863 5865 5868 5870 5873 5876 5878 5881 5883 5886 5887 5889 5891 5892 5892 5893 5893 5893 5893 5893 5893 5892
5826 5828 5829 5830 5832 5833 5835 5836 5838 5839 5840 5842 5844 5845 5846 5846 5847 5849 5851 5853 5855 5857 5860 5862 5865 5868 5871 5873 5876 5879 5881 5884 5886 5888 5889 5891 5892 5892 5893 5893 5893 5893 5893 5893
5822 5824 5826 5827 5829 5830 5832 5833 5834 5836 5837 5839 5841 5844 5843 5843 5845 5847 5848 5850 5852 5855 5857 5860 5862 5865 5868 5871 5874 5876 5879 5882 5884 5886 5888 5890 5891 5892 5892 5893 5893 5893 5893 5893
5818 5820 5822 5824 5825 5826 5827 5829 5831 5833 5834 5835 5837 5842 5839 5840 5842 5843 5845 5847 5849 5852 5854 5857 5859 5862 5865 5868 5871 5874 5877 5879 5882 5884 5886 5888 5889 5890 5891 5892 5893 5893 5894 5894
5814 5816 5819 5820 5823 5824 5824 5826 5827 5829 5831 5832 5834 5838 5836 5837 5838 5840 5842 5844 5846 5848 5851 5854 5856 5859 5862 5865 5868 5871 5874 5877 5879 5882 5884 5886 5887 5889 5890 5891 5892 5893 5893 5894
5809 5812 5815 5817 5818 5819 5821 5822 5824 5825 5827 5829 5831 5832 5833 5833 5835 5836 5838 5840 5842 5845 5848 5850 5853 5856 5859 5862 5865 5868 5871 5874 5876 5879 5881 5884 5886 5887 5889 5890 5891 5892 5892 5893
5805 5808 5810 5812 5813 5815 5817 5818 5820 5822 5824 5825 5827 5828 5829 5829 5831 5832 5834 5836 5838 5841 5844 5847 5850 5852 5855 5858 5861 5864 5867 5870 5873 5876 5878 5881 5883 5885 5886 5888 5889 5890 5891 5892
5800 5804 5806 5808 5809 5811 5813 5815 5816 5818 5819 5821 5822 5824 5824 5825 5826 5828 5830 5832 5835 5837 5840 5843 5846 5849 5851 5854 5858 5860 5864 5867 5870 5872 5875 5878 5880 5882 5884 5885 5887 5888 5889 5890
5796 5800 5803 5804 5806 5807 5810 5811 5812 5813 5815 5816 5818 5820 5820 5821 5822 5824 5826 5828 5831 5833 5836 5839 5842 5845 5847 5850 5853 5857 5860 5863 5866 5869 5872 5875 5877 5879 5881 5883 5885 5886 5887 5888
5792 5795 5798 5800 5802 5804 5809 5807 5808 5809 5810 5812 5813 5815 5816 5817 5818 5820 5822 5825 5827 5830 5833 5836 5838 5841 5843 5846 5849 5853 5856 5859 5862 5865 5868 5871 5874 5876 5878 5880 5882 5883 5884 5885
5787 5790 5793 5796 5797 5800 5803 5803 5803 5805 5806 5807 5809 5810 5811 5812 5814 5816 5819 5821 5823 5826 5829 5831 5834 5837 5839 5842 5845 5849 5852 5855 5858 5862 5864 5867 5870 5872 5874 5876 5878 5880 5881 5882
5782 5785 5789 5791 5793 5796 5799 5799 5799 5801 5803 5803 5804 5806 5807 5809 5811 5813 5815 5817 5820 5822 5825 5828 5830 5833 5836 5839 5842 5845 5848 5851 5854 5857 5860 5863 5866 5868 5870 5872 5874 5876 5877 5878
5777 5780 5783 5786 5788 5791 5794 5794 5795 5798 5800 5800 5800 5802 5803 5805 5807 5809 5811 5813 5816 5818 5821 5823 5826 5829 5832 5835 5838 5841 5844 5848 5850 5853 5856 5859 5861 5864 5866 5868 5870 5872 5873 5874
5772 5775 5779 5781 5784 5789 5789 5790 5792 5793 5794 5795 5796 5798 5800 5801 5802 5804 5807 5809 5812 5814 5817 5819 5822 5825 5828 5831 5834 5837 5841 5843 5846 5849 5852 5854 5857 5859 5861 5863 5865 5867 5869 5870
5766 5771 5774 5777 5781 5782 5783 5785 5787 5788 5790 5791 5793 5794 5796 5797 5799 5800 5803 5805 5808 5811 5813 5816 5819 5821 5824 5827 5830 5833 5836 5839 5842 5845 5847 5850 5852 5854 5857 5859 5861 5862 5863 5865
5761 5764 5768 5771 5774 5776 5778 5780 5782 5784 5786 5787 5789 5791 5792 5794 5795 5797 5800 5802 5805 5807 5810 5813 5815 5818 5821 5824 5827 5829 5832 5835 5837 5840 5843 5845 5847 5849 5851 5853 5855 5857 5858 5859
5755 5759 5762 5765 5769 5771 5773 5775 5777 5780 5782 5784 5786 5787 5789 5790 5792 5794 5796 5799 5801 5804 5806 5809 5812 5814 5817 5820 5823 5825 5828 5830 5833 5835 5838 5840 5842 5844 5846 5847 5849 5850 5852 5853
5749 5753 5757 5760 5763 5766 5769 5771 5773 5775 5777 5779 5782 5784 5785 5787 5789 5790 5792 5795 5797 5800 5802 5805 5808 5810 5813 5816 5819 5821 5823 5826 5828 5830 5832 5834 5836 5838 5840 5841 5843 5844 5845 5846